Theta_e
347 345 343 337 339 339 332 333 338 334 332 330 329 328 331 327 325 326 324 323 323 322
348 343 338 341 339 335 334 334 332 330 328 328 328 329 329 326 324 324 323 324 324 322
342 340 341 337 335 334 335 332 329 328 327 326 327 327 326 324 325 324 324 322 321 320
338 339 336 336 334 332 331 329 327 326 325 324 324 326 324 324 324 323 322 322 320 318
334 334 334 331 330 331 327 327 325 324 323 323 323 325 324 322 323 322 321 321 319 318
332 331 330 328 329 327 326 325 323 322 321 321 322 322 323 322 322 321 320 321 319 317
328 328 327 327 326 325 324 322 321 321 320 320 318 317 321 322 321 321 321 320 316 313
327 326 325 324 323 322 321 320 320 318 316 313 309 306 312 321 320 320 319 317 314 310
323 322 321 320 319 320 319 319 318 316 313 310 304 299 303 309 319 318 316 314 312 305
320 318 318 318 318 318 318 317 315 312 309 305 302 298 299 303 316 313 312 310 308 306
318 317 317 317 316 317 316 315 313 311 309 304 299 297 297 299 314 311 310 308 305 302
316 315 315 315 314 315 314 313 312 310 307 302 298 296 296 304 315 313 310 298 297 296
315 315 314 314 314 314 313 310 309 307 305 302 299 295 295 303 308 311 303 297 295 294
315 315 314 315 315 313 311 309 306 305 303 303 302 297 294 295 302 301 304 300 297 297
Wind_Speed
15 11 12 13 9 9 9 8 9 9 8 8 8 6 4 5 6 5 4 5 4 4
15 17 14 13 11 10 11 9 9 10 8 8 7 5 7 5 5 4 3 3 5 4
18 17 15 15 14 13 11 13 11 10 9 8 6 5 6 5 5 4 5 4 5 5
18 16 16 14 14 14 13 12 12 10 9 8 7 6 6 5 5 6 5 5 4 6
18 16 16 15 14 15 13 11 10 9 9 9 7 5 5 6 5 8 6 5 7 7
18 18 18 16 15 15 12 11 10 10 9 8 7 6 6 5 7 6 6 6 6 6
21 18 17 16 15 14 12 11 9 9 9 9 12 12 8 8 5 7 7 9 10 9
19 19 17 16 15 13 12 11 11 11 12 13 11 8 8 8 8 9 9 9 8 10
20 19 18 16 15 13 13 12 13 12 12 11 9 11 13 9 7 10 9 9 9 10
20 19 18 16 15 14 13 14 13 13 11 11 10 13 12 13 10 10 9 10 8 9
19 19 18 16 15 14 12 13 11 12 12 12 10 14 13 10 7 7 8 8 9 9
19 19 18 16 15 12 12 12 11 11 13 12 11 13 12 7 4 4 8 11 10 8
18 18 17 16 14 11 12 11 11 13 13 13 10 15 19 14 6 3 9 7 6 11
18 17 16 14 11 12 12 13 11 12 11 10 10 12 16 16 9 7 6 6 6 5
Wind_Direction
134 128 117 125 147 139 131 124 120 94 93 96 95 111 122 67 72 43 80 60 27 314
137 121 126 137 113 118 118 116 103 108 112 104 110 107 89 75 87 88 73 96 28 3
123 122 131 121 125 125 132 113 114 111 114 115 102 91 118 112 86 73 65 73 49 23
119 120 123 119 123 118 114 118 122 127 117 106 99 97 97 108 115 102 101 96 72 46
116 124 120 118 118 116 119 118 115 112 108 98 102 110 97 69 66 79 79 100 63 46
128 119 118 119 116 109 114 116 113 104 102 108 103 89 69 74 65 68 73 76 76 61
118 121 114 113 111 109 106 104 101 94 94 81 57 41 24 74 63 69 71 68 62 47
117 114 114 109 104 104 105 102 95 86 74 64 58 40 19 39 48 61 62 70 81 54
116 111 107 105 103 104 101 95 86 82 80 76 62 27 34 15 66 63 49 47 73 75
111 110 109 107 106 103 96 90 87 86 81 68 55 35 30 16 66 68 59 56 41 43
113 109 107 105 103 102 101 96 93 86 79 71 48 32 24 2 89 95 84 65 57 48
110 108 109 106 103 101 101 95 86 86 77 69 48 29 29 7 117 129 105 73 62 55
108 105 106 107 106 111 107 103 91 89 78 68 55 35 30 31 24 13 108 106 113 80
102 105 108 111 105 99 99 104 101 96 85 76 63 45 46 34 44 0 73 80 35 28